Погода в Горловке

Россия / Московская область     55°38′52″N   36°59′35″E
темп.,
°C
ветер,
м/с
пор.,
м/с
влажн.,
%
обл.,
%
осадки,
мм/ч
давл.,
гПа
погр.,
м
9 декабря, чт
чт900:00−12ссв41091100 0.0 1024259
03:00−11ссв4989100 0.0 1023271
06:00−12ссв410906 0.0 1024250
09:00−15ссв38955 0.0 1026148
12:00−11ссв39885 0.0 1026241
15:00−11ссв38895 0.0 1027209
18:00−15ссв269616 0.0 1029101
21:00−16св269718 0.0 103094
10 декабря, пт
пт1000:00−16св24977 0.0 103166
03:00−17всв259835 0.0 103281
06:00−17в249849 0.0 103277
09:00−16в38979 0.0 1033140
12:00−12вюв310905 0.0 1033249
15:00−11вюв310905 0.0 1033262
18:00−13вюв412935 0.0 1034238
21:00−13вюв311925 0.0 1034223
11 декабря, сб
сб1100:00−14вюв412926 0.0 1034240
03:00−14вюв4129311 0.0 1035223
06:00−14вюв4129299 0.0 1034225
09:00−14вюв4129172 0.0 1035226
12:00−11вюв412876 0.0 1035264
15:00−10вюв411875 0.0 1034251
18:00−12вюв4129143 0.0 1035246
21:00−11вюв412905 0.0 1034262
12 декабря, вс
вс1200:00−11вюв31090100 0.0 1035225
03:00−10юв3109087 0.0 1034206
06:00−10юв399387 0.0 1034168
09:00−9юв389346 0.0 1035151
12:00−6юв3890100 0.0 1034194
15:00−5юв3792100 0.0 1034171
18:00−6юв3893100 0.0 1034159
21:00−7юв3892100 0.0 1034153
13 декабря, пн
пн1300:00−8юв3891100 0.0 1034146
03:00−8юв3891100 0.0 1033147
06:00−7юв3889100 0.0 1032172
09:00−6юв2788100 0.0 1032175
12:00−3юв3885100 0.0 1031245
15:00−3юв3887100 0.0 1030248
18:00−4юв2790100 0.0 1030174
21:00−4юв2791100 0.0 1029193